Location: Pine Mountain Observatory
(43.7910°N, 120.9377°W)
Time: 16:54:56
(UTC-07:00)

Cosmos 1867 - Visible Passes

Search period start: 24 April 2014 00:00
Search period end: 04 May 2014 00:00
Orbit: 776 x 800 km, 65.0° (Epoch: 24 April)

Date Brightness Start Highest point End Pass type
(mag) Time Alt. Az. Time Alt. Az. Time Alt. Az.
24 Apr 4.2 02:12:46 52° ENE 02:12:46 52° ENE 02:16:57 10° NE visible
24 Apr 5.2 03:53:25 19° WNW 03:55:37 24° NW 04:00:02 10° NNE visible
25 Apr 4.8 01:41:52 36° ENE 01:41:52 36° ENE 01:45:16 10° NE visible
25 Apr 4.8 03:22:31 27° WNW 03:23:50 30° NW 03:28:37 10° NNE visible
26 Apr 5.2 01:10:55 25° ENE 01:10:55 25° ENE 01:13:31 10° NE visible
26 Apr 4.5 02:51:34 37° WNW 02:52:05 37° NW 02:57:11 10° NNE visible
26 Apr 6.0 04:35:39 10° NW 04:37:19 11° NNW 04:39:00 10° N visible
27 Apr 5.6 00:39:56 18° ENE 00:39:56 18° ENE 00:41:40 10° NE visible
27 Apr 4.2 02:20:35 48° NW 02:20:35 48° NW 02:25:42 10° NNE visible
27 Apr 5.9 04:02:47 10° NW 04:05:22 13° NNW 04:07:57 10° N visible
28 Apr 5.9 00:08:54 13° ENE 00:08:54 13° ENE 00:09:38 10° ENE visible
28 Apr 4.1 01:49:33 55° NNW 01:49:33 55° NNW 01:54:11 10° NNE visible
28 Apr 5.8 03:30:11 10° WNW 03:33:27 16° NNW 03:36:43 10° N visible
29 Apr 4.2 01:18:28 53° NNE 01:18:28 53° NNE 01:22:37 10° NNE visible
29 Apr 5.6 02:59:06 15° WNW 03:01:34 19° NW 03:05:24 10° N visible
30 Apr 4.5 00:47:20 43° NE 00:47:20 43° NE 00:51:01 10° NE visible
30 Apr 5.4 02:27:58 20° WNW 02:29:43 23° NW 02:34:02 10° NNE visible
01 May 4.7 00:16:08 34° ENE 00:16:08 34° ENE 00:19:21 10° NE visible
01 May 5.1 01:56:46 26° WNW 01:57:55 28° NW 02:02:38 10° NNE visible
01 May 5.0 23:44:52 27° ENE 23:44:52 27° ENE 23:47:37 10° NE visible
02 May 4.7 01:25:29 34° WNW 01:26:10 35° NW 01:31:11 10° NNE visible
02 May 6.3 03:10:04 10° NW 03:11:28 11° NNW 03:12:52 10° N visible
02 May 5.2 23:13:30 22° ENE 23:13:30 22° ENE 23:15:47 10° NE visible
03 May 4.4 00:54:07 45° WNW 00:54:27 45° NW 00:59:43 10° NNE visible
03 May 6.2 02:37:06 10° NW 02:39:29 13° NNW 02:41:54 10° N visible
03 May 5.3 22:42:01 17° ENE 22:42:01 17° ENE 22:43:48 10° ENE visible
